Regional Weather Roundup
Issued by NWS Newport/Morehead, NC

Current Version | Previous Version | Graphics & Text | Print | Product List | Glossary On
Versions: 1 2 3 4 5 6 7 8 9 10 11 12 13 14 15 16 17 18 19 20 21 22 23 24 25 26 27 28 29 30 31 32 33 34 35 36 37 38 39 40 41 42 43 44 45 46 47 48 49 50
000 ASUS42 KMHX 041828 RWRMHX WEATHER ROUNDUP FOR EASTERN NORTH CAROLINA NATIONAL WEATHER SERVICE NEWPORT/MOREHEAD CITY NC 100 PM EST WED MAR 04 2015 NOTE: "FAIR" INDICATES FEW OR NO CLOUDS BELOW 12,000 FEET WITH NO SIGNIFICANT WEATHER AND/OR OBSTRUCTIONS TO VISIBILITY NCZ015>017-031-032-045>047-102-103-041900- NORTH COAST CITY SKY/WX TMP DP RH WIND PRES REMARKS EDENTON SUNNY 67 61 81 W10G16 29.95F ELIZABETH CITY PTSUNNY 67 61 81 SW18G24 29.95F KITTY HAWK CLOUDY 73 62 69 W6 29.95F MANTEO CLOUDY 66 57 72 S10 29.97F $$ NCZ045>047-081-094-103-104-041900- CENTRAL COAST CITY SKY/WX TMP DP RH WIND PRES REMARKS FRISCO FOG 55 55 100 SW12G20 30.02F VSB 1/2 SWANQUARTER N/A 61 N/A N/A S18 29.91F $$ NCZ095-097-098-100-101-041900- SOUTHERN COAST CITY SKY/WX TMP DP RH WIND PRES REMARKS BEAUFORT FOG 60 60 100 SW20G29 30.04F VSB 1/4 CEDAR ISLAND N/A 70 N/A N/A SW18G33 30.03F JACKSONVILLE PTSUNNY 78 64 61 SW20 29.99F PINEY ISLAND N/A N/A N/A N/A MISG 30.01F WILMINGTON SUNNY 74 65 73 S15G30 30.02F $$ NCZ011>013-027>030-043-044-078>080-089-090>093-098-041900- COASTAL PLAIN CITY SKY/WX TMP DP RH WIND PRES REMARKS AHOSKIE CLOUDY 61 57 86 SW6 29.96F CLINTON CLOUDY 75 65 69 SW10G18 29.98F ELIZABETHTOWN MOSUNNY 78 63 60 SW17G24 29.99F GOLDSBORO NOT AVBL GREENVILLE SUNNY 70 63 78 SW12G18 29.98F HAVELOCK MOSUNNY 73 63 70 SW17G25 30.02F KENANSVILLE CLOUDY 76 61 60 SW13G21 29.98F KINSTON NOT AVBL NEW BERN CLOUDY 81 63 54 SW18G24 29.98F RICHLANDS PTSUNNY 79 64 61 SW18G30 29.98F ROCKY MOUNT CLOUDY 60 57 89 SW13 29.97F WASHINGTON MOSUNNY 76 62 62 SW20G28 29.95F WHITEVILLE MOSUNNY 76 65 69 SW13G25 30.01F $$ AMZ130-135-150-152-154-156-158-170-250-252-270-ANZ085-086-088-633-658-670-041900- MARINE OBSERVATIONS STATION/POSITION TIME TEMP WIND PRES WAVE SWELL AIR SEA DIR/SP/G HT/PER HT/PER (UTC) (F) (DEG/KT/KT) (MB) (FT/S) (FT/S) CHESAPEAKE LIGHT 1800 48 CALM / 1 1015.0 64 E VA BEACH 1750 54 54 240/ 10/ 12 1014.9 6/ 6 5/ 6 DUCK 1800 58 35 210/ 7/ 10 1013.6 2 E DUCK 1811 38 N/A 3/ 8 10 NE DUCK 1722 38 N/A 4/ 8 2/11 OREGON INLET 1800 53 45 200/ 20/ 24 1015.1 HATTERAS CG 1800 56 45 230/ 11/ 16 1016.9 CAPE LOOKOUT 1800 59 230/ 11/ 14 1017.3 BEAUFORT LAB 1800 58 45 220/ 12/ 16 1016.1 27 SE WRIGHTSVLE NOT AVBL 5 SE WRIGHTSVLE NOT AVBL 225 S CAPE HAT 1750 73 73 220/ 16/ 19 1022.1 6/10 3/10 41 SE CHARLESTON 1750 69 69 220/ 17/ 21 1018.4 5/ 8 3/ 8 $$

USA.gov is the U.S. government's official web portal to all federal, state and local government web resources and services.